www.pogodaiklimat.ru

Погода и климат >> Архив погоды >> Узбекистан >> Каракалпакия


ПОГОДА в Каракалпакии

  • Прогноз погоды в Каракалпакии
  • Монитор погоды в Каракалпакии
  • Климат города

АРХИВ ПОГОДЫ в Каракалпакии

Время (UTC), дата Ветер
(напр.,м/с)
 
Видим.   Явления Облачность Т
(С)
Тd
(С)
f
(%)
Тe
(С)
Тes
(С)
Комфортность P
(гПа)
Po
(гПа)
Тmin
(С)
Tmax
(С)
R
(мм)
R24
(мм)
S
(см)
21 12.09 В 4 н/о 8/4 600 м
[Cb cap Ci sp]
+19.4 +4.5 37 +20 +20 1023.0 1008.0
00 13.09 В 2 н/о 8/4 600 м
[Cb cap Ci sp]
+16.9 +0.2 32 +17 +17 1023.1 1008.0
03 13.09 В 2 20 км 6/0
[Ci sp]
+14.9 -1.9 31 +15 +15 1024.6 1009.4
06 13.09 В 4 20 км ясно +24.0 -5.7 13 +22 +28 комфорт 1025.0 1010.2 +13.8
09 13.09 В 3 20 км ясно +26.1 -4.4 13 +24 +33 комфорт 1024.4 1009.7
12 13.09 В 2 20 км ясно +26.9 -8.6 9 +24 +28 комфорт 1023.5 1008.9
15 13.09 В 2 20 км ясно +22.3 -7.4 13 +21 +21 комфорт 1023.7 1008.8 +27.7
18 13.09 В 2 н/о ясно +17.1 -6.7 19 +18 +18 1024.7 1009.6 +27.7
21 13.09 В 1 н/о ясно +12.9 -6.7 25 +14 +14 1024.4 1009.0
00 14.09 В 2 н/о ясно +9.8 -4.7 36 +9 +9 1024.0 1008.4
06 14.09 ЮВ 5 20 км 6/0
[Ci fib]
+22.0 -9.0 12 +20 +24 1024.5 1009.6 +9.7
09 14.09 ЮВ 3 20 км 4/0
[Ci fib]
+25.4 -11.7 8 +22 +31 комфорт 1022.8 1008.1
12 14.09 ЮВ 3 20 км ясно +26.5 -14.4 6 +23 +26 комфорт 1021.5 1006.9
15 14.09 ЮВ 3 10 км ясно +22.4 -11.7 9 +20 +20 1021.9 1007.0 +27.4
18 14.09 ЮВ 3 н/о ясно +14.9 -9.0 18 +15 +15 1022.6 1007.4 +27.4
21 14.09 ЮВ 2 н/о ясно +11.8 -6.7 27 +11 +11 1023.1 1007.6
00 15.09 В 2 н/о ясно +10.7 -5.7 31 +10 +10 1022.3 1006.9
03 15.09 В 2 20 км 3/0
[Ci fib]
+10.0 -1.7 44 +9 +10 1022.4 1006.9
06 15.09 В 3 20 км 4/0
[Ci fib]
+23.3 -3.6 16 +21 +28 комфорт 1022.1 1007.3 +8.6
09 15.09 ЮВ 7 20 км 3/0
[Ci fib]
+27.2 -6.7 10 +24 +27 комфорт 1021.5 1006.9
12 15.09 В 5 20 км 4/0
[Ci fib]
+28.8 -8.2 8 +25 +27 комфорт 1020.1 1005.6
18 15.09 В 2 н/о ясно +16.7 -5.7 21 +17 +17 1020.8 1005.7 +29.2
21 15.09 В 2 н/о ясно +15.6 -3.8 26 +16 +16 1020.7 1005.5
00 16.09 В 2 н/о 4/0
[Ci sp]
+11.0 -3.3 37 +10 +10 1020.7 1005.3
03 16.09 В 1 20 км 4/0
[Ci sp]
+11.0 -3.3 37 +11 +12 1019.1 1003.7
06 16.09 ЮВ 4 20 км 4/0
[Ci sp]
+25.1 -4.1 14 +23 +28 комфорт 1019.6 1004.9 +9.7
09 16.09 ЮВ 4 20 км 10/0
[Ci sp]
+28.2 -7.8 9 +25 +31 комфорт 1017.5 1002.9
12 16.09 ЮВ 4 20 км 6/0
[Ci fib]
+29.2 -10.3 7 +25 +27 комфорт 1015.5 1001.1
18 16.09 В 5 н/о 6/6 600 м
[Cb cap]
+18.2 -8.6 15 +18 +18 1015.8 1000.8 +29.5
21 16.09 В 2 н/о 6/6 600 м
[Cb cap]
+14.5 -8.2 20 +15 +15 1015.2 1000.0
00 17.09 В 2 н/о 6/6 600 м
[Cb cap]
+14.0 -4.7 27 +14 +14 1014.1 998.9
03 17.09 В 2 20 км 6/4 600 м
[Cb cap Ci sp]
+14.5 -7.1 22 +15 +15 1014.0 998.8
06 17.09 ЮВ 3 20 км 6/0
[Ac trans]
+28.0 -10.3 7 +24 +28 комфорт 1013.4 998.9 +13.5
09 17.09 ЮВ 3 20 км 3/0
[Ci fib]
+31.2 -10.3 6 +27 +35 жарко 1012.3 998.0
12 17.09 Ю 2 20 км 4/0
[Ci fib]
+32.0 -9.8 6 +28 +31 жарко 1010.5 996.3
18 17.09 ЮВ 3 н/о 4/0
[Ci sp]
+19.4 -11.2 12 +19 +19 1011.2 996.4 +32.6
21 17.09 ЮВ 2 н/о 4/0
[Ci sp]
+16.1 -11.2 14 +16 +16 1012.0 996.8
00 18.09 ЮЗ 3 н/о 3/0
[Ci sp]
+13.6 -9.0 20 +13 +13 1012.3 997.0
03 18.09 З 2 20 км 6/4 600 м
[Cb cap Ci sp]
+14.7 -2.7 30 +15 +15 1013.5 998.4
06 18.09 СЗ 5 20 км 10/6 600 м
[Cb cap Ci sp]
+21.3 +1.2 26 +23 +24 комфорт 1014.6 999.8 +13.0
09 18.09 СЗ 8 20 км 10/6 600 м
[Cb cap Ci sp]
+24.6 +3.0 24 +24 +24 комфорт 1014.7 1000.1
12 18.09 З 8 20 км 10/0
[Ci sp]
+26.3 +3.2 22 +25 +25 комфорт 1014.0 999.6
18 18.09 З 2 н/о 6/4 600 м
[Cb cap Ci sp]
+17.7 +9.3 58 +18 +18 1016.0 1001.1 +27.3
21 18.09 З 3 н/о 4/0
[Ci sp]
+14.7 +7.1 60 +14 +14 1016.2 1001.1
00 19.09 ЮЗ 2 н/о ясно +11.9 +6.7 70 +11 +11 1016.4 1001.2
03 19.09 ЮЗ 3 20 км 6/4 600 м
[Cb cap Ci sp]
+11.3 +8.5 83 +9 +10 1016.5 1001.2
06 19.09 З 5 20 км 10/6 600 м
[Cb cap Ci sp]
+18.8 +0.6 29 +19 +21 1016.4 1001.5 +11.0
09 19.09 З 10 20 км 9/6 600 м
[Cb cap Ci fib]
+22.0 -5.5 15 +21 +21 комфорт 1015.2 1000.5
12 19.09 С 18 20 км 9/4 600 м
[Cb cap Ac trans Ci fib]
+22.2 +1.9 26 +22 +22 комфорт 1014.0 999.3
18 19.09 З 3 н/о 10/10 600 м
[Cb cap]
+17.6 +6.5 48 +18 +18 1014.1 999.1 +23.3

 

Местоположение метеостанции Каракалпакия (Каракалпакстан, Узбекистан): широта 44.85 долгота 56.33 высота над уровнем моря 126 м.

В архиве по умолчанию представлена погода в Каракалпакии за последнюю неделю. Архивные данные за месяц целиком и за предыдущие месяцы, начиная с января 2011 года, Вы можете получить, выбрав интересующий диапазон дат из раскрывающегося списка и нажав кнопку "Ввод!".


*Определитесь, кто Вы:
робот инопланетянин человек

Внимание! Время в таблицах - всемирное. Для получения местного времени необходимо прибавить поправку, которая в Каракалпакии равна 5 ч.

Смотрите также архив погоды в соседних городах и на ближайших метеорологических станциях:

Погода в Саме (Мангистауская область, Казахстан) (63 км)
Погода в Бейнеу (Мангистауская область, Казахстан) (103 км)
Погода в Жаслыке (Каракалпакстан, Узбекистан) (144 км)
Погода в Опорной (Мангистауская область, Казахстан) (197 км)
Погода в Муйнаке (Каракалпакстан, Узбекистан) (227 км)
Погода в Сай-Утесе (Мангистауская область, Казахстан) (228 км)
Погода в Аккудуке (Мангистауская область, Казахстан) (274 км)
Погода в Кульсары (Атырауская область, Казахстан) (286 км)
Погода в Кунграде (Каракалпакстан, Узбекистан) (286 км)
Погода в Аяккуме (Актюбинская область, Казахстан) (303 км)

Пояснения к столбцам:

Ветер - указаны скорость ветра в м/с - средняя за 10 мин, порывы в срок и между сроками (в фигурных скобках) и направление, откуда дует ветер: С - северный, СВ - северо-восточный, В - восточный, ЮВ - юго-восточный, Ю - южный, ЮЗ - юго-западный, З - западный, СЗ - северо-западный.
Видимость - горизонтальная дальность видимости в метрах или километрах. При видимости от 1 до 10 км при отсутствии осадков обычно наблюдается дымка, при ухудшении видимости до 1 км и менее - туман. В сухую погоду видимость может ухудшаться дымом, пылью или мглою.
Явления - указаны атмосферные явления, наблюдавшиеся в срок или в последний час перед сроком; фигурными скобками обозначены явления, наблюдавшиеся между сроками (за 1-3 часа до срока); квадратными скобками обозначены град или гололедные отложения с указанием их диаметра в мм.
Облачность - указаны через наклонную черту общая и нижняя облачность в баллах и высота нижней границы облаков в метрах; квадратными скобками обозначены формы облаков: Ci - перистые, Cs - перисто-слоистые, Cc - перисто-кучевые, Ac - высококучевые, As - высокослоистые, Sc - слоисто-кучевые, Ns - слоисто-дождевые, Cu - кучевые, Cb - кучево-дождевые. Подробнее классификацию облаков см. в Атласе облаков (PDF).
T - Температура воздуха - температура, измеренная на высоте 2 м над землей.
Td - Температура точки росы - температура, при понижении до которой содержащийся в воздухе водяной пар достигнет насыщения.
f - Относительная влажность воздуха - влажноcть воздуха, измеренная на высоте 2 м над землей.
Te - Эффективная температура - температура, которую ощущает одетый по сезону человек в тени. Характеристика душности погоды. При расчете учитывается влияние влажности воздуха и скорости ветра на теплоощущения человека.
Tes - Эффективная температура на солнце - температура, которую ощущает человек, с поправкой на солнечный нагрев. Характеристика знойности погоды. Зависит от высоты солнца над горизонтом, облачности и скорости ветра. Ночью, в пасмурную погоду, а также при ветре 12 м/с и более поправка равна нулю.
P - Атмосферное давление - приведенное к уровню моря атмосферное давление.
Po - Атмосферное давление - измеренное на уровне метеостанции атмосферное давление.
Tmin - Минимальная температура - минимум температуры воздуха на высоте 2 м над землей.
Tmax - Максимальная температура - максимум температуры воздуха на высоте 2 м над землей.
R - Количество осадков - Количество выпавших осадков за период времени, мм. При наведении курсора мыши на число - период времени, за который выпало указанное количество осадков.
R24 - Количество осадков - Количество выпавших осадков за 24 часа, мм.
S - Снежный покров - Высота снежного покрова, см. При наведении курсора мыши на число - состояние снежного покрова и степень покрытия местности в баллах.